STARLINK-33819, 63494

Orbit data source: Space-Track

STARLINK-33819, 63494 is a payload satellite owned by SpaceX/Seattle (US) in LEO that was launched on Mon, 07 Apr 2025 UTC via an FALCON 9 launch vehicle from the Air Force Western Test Range (AFWTR). Payload-class satellites include a variety of spacecraft equipped with specific instruments for various scientific and technological missions. These include communications satellites like Starlink; space stations such as the ISS; scientific satellites like the Hubble; Earth observation satellites from companies like Planet Labs, Umbra, and HawkEye 360; GPS; miniature CubeSats for education and research; and military/defense satellites.

Loading next visibility...
Identifier
63494, 2025-071B
Orbit
LEO
Country
Flag of USUS
Related business
Manufacturer
SpaceX/Seattle
Mission
Operational Commercial Communications
Bus & Motor
STARLINK V2MO, Unknown motor
Mass
575 kg wet, ~530 kg dry
Launch date (UTC)
2025-04-07 (8 months ago)
Launch vehicle
FALCON 9
Launch site
Air Force Western Test Range (AFWTR)
Object type
Payload
Rocket body
Debris
Shape & HBR
Box + 2 Pan, 17.7 m
Radar Cross Section
36.964 m², Large (>1 m²)

Expand to show TLE details & history
Last TLE update: 7 hours ago

TLE from 7 hours ago
0 STARLINK-33819
1 63494U 25071B   25342.80119340  .00054166  00000-0  18274-2 0  9999
2 63494  53.1582 204.2849 0001198  95.6240 264.4897 15.30204538 38806
Epoch: 2025-12-08T19:13Z
TLE epoch observation values (Epoch: 2025-12-08T19:13:43.109Z)
Latitude
-0.00007°
Longitude
-161.93979°
Altitude
476.18 km
Speed
7.629 km/s
True Right ascension
13h 37m 08s
True Declination
0° 00' 00"
Sunlit
Object was in daylight at epoch
Visualization orbit readout
Latitude
Unknown
Longitude
Unknown
Altitude
Unknown
Speed
Unknown
Apparent Right ascension
Unknown
Apparent Declination
Unknown
Sunlit
N/A
Visualization observer readout
Local Sidereal Time
00:55:17
Azimuth
Unknown
Elevation
Unknown
Doppler factor
Unknown
Orbital elements
Apogee altitude
476.279 km
Perigee altitude
474.637 km
Semi-major axis
6,853.595 km
Eccentricity
0.00012
Inclination
53.1582°
RAAN
204.2849°
Arg. of periapsis
95.624°
True anomaly
264.47604°
Mean anomaly
264.4897°
Eccentric anomaly
264.48287°
Mean motion
3.8253 °/min
Orbital period
94.11 mins
BSTAR
0.0018274
Loading maneuver chart data...
Computing Atmospheric mass density...
Loading historical data...
Loading historical data...
Loading historical data...
Loading historical data...
Loading historical data...
Loading historical data...
Loading historical data...

Documentation

Showing up to 5 results
|